星链-37646(STARLINK-37646)

导读

STARLINK-37646(NORAD 69650)是SpaceX星链(Starlink)低轨宽带通信星座中的一颗v2 Mini卫星,2026年由猎鹰9号火箭发射入轨,属于星链组网补充批次。该卫星运行于近地轨道,设计寿命约5年,主要为全球(含偏远及通信基础设施薄弱地区)提供高速低延迟宽带互联网服务,星间及星地传输速率可达1Gbps以上。作为超万颗规模星链星座的组成单元,其在轨状态需配合星座整体调度,同时需遵循空间交通管理要求以规避碰撞风险,相关部署也为天文观测等领域带来一定干扰管控挑战。(全文148字)

Basic Information
目录编号:
69650
目录名称:
STARLINK-37646
国际标识:
2026-143B
轨道中心:
EARTH
卫星名称:
星链-37646
卫星全名:
星链-37646(STARLINK-37646)
卫星状态:
在轨 (已飞行75 天)
发射日期:
2026-06-21 UTC
国别 :
美国 (US)
星等 :
--
Orbit Information
数据来源 国际轨道数据 AOE轨道数据
星历时间 2026-09-03T10:08:45+0800
1天前
查看轨道信息
2026-09-03T23:00:00+0800
12小时前
查看轨道信息
半长轴 6843.688km 6843.702km
偏心率 0.0000928 0.0000785
轨道倾角 97.284° 97.287°
近地点辐角 81.505° 109.404°
升交点赤经 289.519° 290.048°
平近点角 278.630° 325.464°
近地点 464.915km 465.027km
远地点 466.187km 466.103km
周期 93.906分钟 93.907分钟
每日圈数 15.334425 15.334379
Detailed Information
固有亮度:
5
最大亮度:
2.5
卫星平台:
Starlink V1.0
覆盖范围:
全球
运营商:
太空探索技术公司
运营商所在国:
美国
制造商(研发单位):
太空探索技术公司
制造商所在国:
美国
使用方式:
暂无
Satellite Introduction
Starlink 计划是 SpaceX 推出的全球卫星互联网项目,通过发射低轨道卫星,为全球尤其是偏远地区提供高速、低延迟的互联网服务。自 2019 年起,Starlink 已部署数千颗卫星,旨在缩小全球数字鸿沟,推动互联网普及。该项目还为军事、航空等行业提供通信支持,带来广泛经济效益。
2D Orbit Map
3D Orbit Map
Orbit Altitude Analysis Chart
Orbit Inclination Analysis Chart
Orbit Comprehensive Analysis Chart
View Comprehensive Chart
Conjunction Data List
Event ID Objects TCA Miss Dist (km) Collision Risk Probability Collision Risk Index (CRI) Action
CDM_260904-140303-829906-965021
2026-09-04T
14:03:26+0000
2.594 km
极远距离
1.666075E-6 低风险 0.39
CDM_260829-194405-233606-965021
2026-08-29T
19:44:32+0000
2.696 km
极远距离
1.511708E-6 低风险 0.39
CDM_260827-182405-325306-965021
2026-08-27T
18:24:19+0000
2.788 km
极远距离
1.442145E-6 低风险 0.38
CDM_260905-141706-785906-965021
2026-09-05T
14:17:25+0000
2.999 km
极远距离
1.3225E-6 低风险 0.37
CDM_260905-022904-832606-965021
2026-09-05T
02:29:54+0000
2.797 km
极远距离
1.064677E-6 低风险 0.36